[Iaude] MPEC U37: 2023 TT19 [a=0.97,e=0.47,i=16.8,H=23.1]
    mpec at marsden.cfa.harvard.edu 
    mpec at marsden.cfa.harvard.edu
       
    Tue Oct 17 02:17:57 EDT 2023
    
    
  
M.P.E.C. 2023-U37                              Issued 2023 October 17, 06:16 UT
     The Minor Planet Electronic Circulars contain information on unusual
         minor planets, routine data on comets and natural satellites,
         and occasional editorial announcements.  They are published
    on behalf of Division F of the International Astronomical Union by the
          Minor Planet Center, Smithsonian Astrophysical Observatory,
                          Cambridge, MA 02138, U.S.A.
			  
             Prepared using the Tamkin Foundation Computer Network
                              MPC at CFA.HARVARD.EDU
            URL https://www.minorplanetcenter.net/    ISSN 1523-6714
                                   2023 TT19                                    
Observations:
     K23T19T  C2023 10 12.32145 02 30 34.69 +09 36 17.7          21.1 GVEU037G96
     K23T19T  C2023 10 12.32664 02 30 32.47 +09 36 24.1          21.2 GVEU037G96
     K23T19T  C2023 10 12.33183 02 30 30.17 +09 36 30.0          21.3 GVEU037G96
     K23T19T* C2023 10 15.51448402 08 44.004+10 31 54.67         21.26wXEU037F51
     K23T19T  C2023 10 15.52508002 08 39.655+10 32 04.73         20.93wXEU037F51
     K23T19T  C2023 10 15.53570802 08 35.277+10 32 14.55         21.20wXEU037F51
     K23T19T  C2023 10 15.54656902 08 30.833+10 32 24.55         21.25wXEU037F51
     K23T19T  C2023 10 15.61566702 08 02.627+10 33 27.91         21.44GVEU037F51
     K23T19T  C2023 10 15.61630502 08 02.365+10 33 28.49         21.72GVEU037F51
     K23T19T 3C2023 10 16.47817102 02 24.181+10 46 39.97         20.81GVEU037T14
     K23T19T 3C2023 10 16.47914802 02 23.789+10 46 40.86         20.76GVEU037T14
     K23T19T 3C2023 10 16.48012702 02 23.392+10 46 41.70         20.83GVEU037T14
     K23T19T KC2023 10 17.23113601 57 33.74 +10 57 22.0          21.2 VuEU037H21
     K23T19T KC2023 10 17.23672901 57 31.52 +10 57 27.1          21.4 VuEU037H21
     K23T19T KC2023 10 17.24400001 57 28.68 +10 57 32.8          21.7 VuEU037H21
Observer details:
F51 Pan-STARRS 1, Haleakala.  Observers J. Bulger, T. Lowe, P. Minguez, A.
    Schultz, I. Smith.  Measurers K. Chambers, T. de Boer, J. Fairlamb, H.
    Gao, M. Huber, C.-C. Lin, E. Magnier, Y. Ramanjooloo, R. Wainscoat, R.
    Weryk.  1.8-m Ritchey-Chretien + CCD.
G96 Mt. Lemmon Survey.  Observer D. Rankin.  Measurers B. Gray, D. Rankin, F.
    C. Shelly.  1.5-m reflector + 10K CCD.
H21 Astronomical Research Observatory, Westfield.  Observer R. Holmes.
    Measurers T. Linder, R. Holmes, L. Horn.  0.76-m f/3.0 astrograph + CCD.
T14 Canada-France-Hawaii Telescope, Maunakea.  Observers R. Wainscoat, H.
    Januszewski, T. Burdullis.  Measurers R. Weryk, R. Wainscoat.  3.6-m
    Canada-France-Hawaii Telescope + CCD.
Orbital elements:
2023 TT19                                                Earth MOID = 0.1222 AU
Epoch 2023 Sept. 13.0 TT = JDT 2460200.5                MPC                     
M  72.97173              (2000.0)            P               Q                  
n   1.03248705     Peri.  211.12230     -0.55831130     +0.82013138             
a   0.9694966      Node    25.59771     -0.68909183     -0.37439107             
e   0.4699854      Incl.   16.84375     -0.46199669     -0.43268446             
P   0.95           H   23.18          G   0.15           U   9                  
Residuals in seconds of arc
231012 G96  0.1+  0.3-    231015 F51  0.0   0.1+    231016 T14  0.0   0.0
231012 G96  0.4+  0.2+    231015 F51  0.2+  0.0     231016 T14  0.0   0.0
231012 G96  0.4-  0.1+    231015 F51  0.2-  0.1+    231017 H21  0.0   0.1+
231015 F51  0.0   0.0     231015 F51  0.2-  0.1+    231017 H21  0.2-  0.5+
231015 F51  0.1+  0.2+    231016 T14  0.0   0.0     231017 H21  0.2+  0.0
Ephemeris:
2023 TT19                a,e,i = 0.97, 0.47, 17                  q = 0.5138
Date    TT    R. A. (2000) Decl.     Delta      r    Elong.  Phase     V
2023 09 17    05 05 29.9 -00 22 06   0.2673  1.0744    97.7    68.0    22.9
...
2023 10 02    03 42 51.2 +05 40 46   0.2384  1.1739   131.9    39.4    22.0
...
2023 10 10    02 46 58.2 +08 50 00   0.2422  1.2199   153.2    21.6    21.6
...
2023 10 16    02 05 32.5 +10 39 33   0.2579  1.2513   169.0     8.8    21.3
2023 10 17    01 59 02.6 +10 54 20   0.2617  1.2562   171.5     6.8    21.3
2023 10 18    01 52 42.3 +11 08 08   0.2658  1.2611   173.9     4.8    21.2
...
2023 10 24    01 18 42.4 +12 12 09   0.2963  1.2889   171.9     6.2    21.6
...
2023 11 01    00 45 07.8 +13 01 02   0.3511  1.3218   156.3    17.5    22.4
...
2023 11 16    00 12 44.8 +13 52 01   0.4831  1.3710   134.3    31.1    23.6
A. U. Tomatic                (C) Copyright 2023 MPC           M.P.E.C. 2023-U37
    
    
More information about the Iaude
mailing list